PLF120 EPKK-EPGD

Flight info

Callsign PLF120
Flight time N/A
Altitude 26000
Route NAVUR N744 OVBOR N133 GRUDA Z95 OSLOG
Aircraft B738/M-SDE2E3FGHIRWXY/LB1

Departure

Time 2026-04-30 22:33
Airport Kraków John Paul II International Airport (EPKK)

Arrival

Time N/A
Airport Gdańsk Lech Wałęsa Airport (EPGD)
Time Latitude Longitude Altitude Speed Heading
2026-04-30 22:01 50.07555 19.79248 798 ft 0 kts 348°
2026-04-30 22:29 50.07603 19.79234 798 ft 3 kts
2026-04-30 22:29 50.07626 19.79267 798 ft 5 kts 60°
2026-04-30 22:30 50.07691 19.79705 798 ft 14 kts 78°
2026-04-30 22:31 50.07754 19.80159 798 ft 14 kts 77°
2026-04-30 22:32 50.07914 19.80308 798 ft 10 kts 348°
2026-04-30 22:32 50.08019 19.80264 798 ft 3 kts 274°
2026-04-30 22:33 50.07843 19.78997 798 ft 127 kts 258°
2026-04-30 22:33 50.07388 19.75702 1863 ft 163 kts 261°
2026-04-30 22:34 50.06750 19.70441 3948 ft 171 kts 262°
2026-04-30 22:35 50.06274 19.66600 5065 ft 192 kts 276°
2026-04-30 22:36 50.10587 19.62052 7410 ft 228 kts 352°
2026-04-30 22:36 50.12182 19.61588 8011 ft 242 kts 355°
2026-04-30 22:37 50.16763 19.64740 10353 ft 258 kts 41°
2026-04-30 22:37 50.18118 19.66641 11060 ft 270 kts 40°
2026-04-30 22:37 50.21110 19.70731 11941 ft 298 kts 40°
2026-04-30 22:38 50.24149 19.74860 14060 ft 297 kts 40°
2026-04-30 22:38 50.27272 19.79113 16019 ft 301 kts 40°
2026-04-30 22:39 50.28836 19.81253 16988 ft 303 kts 40°
2026-04-30 22:39 50.33640 19.87751 19655 ft 310 kts 37°
2026-04-30 22:40 50.39704 19.90905 22129 ft 325 kts
2026-04-30 22:41 50.46536 19.91030 24317 ft 327 kts 13°
2026-04-30 22:41 50.51029 19.91993 25712 ft 330 kts 14°
2026-04-30 22:42 50.60608 19.93790 26361 ft 374 kts 12°
2026-04-30 22:43 50.65921 19.94674 26363 ft 396 kts 12°
2026-04-30 22:43 50.71393 19.95547 26360 ft 394 kts 12°
2026-04-30 22:44 50.76848 19.96417 26360 ft 395 kts 11°
2026-04-30 22:45 50.87729 19.98179 26359 ft 392 kts 11°
2026-04-30 22:45 50.93154 19.99069 26357 ft 393 kts 12°
2026-04-30 22:46 50.98586 19.99963 26360 ft 394 kts 12°
2026-04-30 22:47 51.09513 20.01433 26374 ft 400 kts
2026-04-30 22:47 51.15065 19.99829 26372 ft 411 kts 352°
2026-04-30 22:48 51.20540 19.97024 26372 ft 417 kts 350°
2026-04-30 22:49 51.28758 19.92585 26365 ft 416 kts 349°
2026-04-30 22:49 51.36971 19.88240 26355 ft 415 kts 350°
2026-04-30 22:50 51.47958 19.82498 26355 ft 416 kts 350°
2026-04-30 22:51 51.53418 19.79635 26354 ft 417 kts 350°
2026-04-30 22:51 51.58895 19.76764 26355 ft 413 kts 350°
2026-04-30 22:52 51.61676 19.75308 26356 ft 415 kts 350°
2026-04-30 22:52 51.67155 19.72432 26352 ft 415 kts 350°
2026-04-30 22:53 51.72660 19.69531 26352 ft 415 kts 350°
2026-04-30 22:53 51.78132 19.66631 26352 ft 416 kts 350°
2026-04-30 22:53 51.80894 19.65170 26350 ft 415 kts 350°
2026-04-30 22:54 51.86417 19.62409 26355 ft 415 kts 351°
2026-04-30 22:55 51.94676 19.58409 26357 ft 413 kts 351°
2026-04-30 22:55 52.00178 19.55731 26365 ft 417 kts 351°
2026-04-30 22:56 52.05693 19.53026 26365 ft 416 kts 351°
2026-04-30 22:56 52.13990 19.48923 26359 ft 415 kts 351°
2026-04-30 22:57 52.19505 19.46188 26351 ft 417 kts 351°
2026-04-30 22:57 52.25026 19.43442 26351 ft 417 kts 351°
2026-04-30 22:58 52.30580 19.40671 26345 ft 417 kts 351°
2026-04-30 22:59 52.38902 19.36510 26350 ft 419 kts 350°
2026-04-30 22:59 52.47214 19.32333 26350 ft 419 kts 350°